Time,TemperatureF,DewpointF,PressureIn,WindDirection,WindDirectionDegrees,WindSpeedMPH,WindSpeedGustMPH,Humidity,HourlyPrecipIn,Conditions,Clouds,dailyrainin,SolarRadiationWatts/m^2,SoftwareType,DateUTC
2013-02-21 00:05:00,42.2,36.0,30.12,NE,38,4.0,8.0,79,0.00,,,0.00,0,weatherlink.com 1.10,2013-02-21 08:05:00,
2013-02-21 00:20:00,41.9,36.0,30.12,NNE,27,3.0,5.0,79,0.00,,,0.00,0,weatherlink.com 1.10,2013-02-21 08:20:00,
2013-02-21 00:35:00,41.2,35.0,30.12,NNE,22,1.0,3.0,79,0.00,,,0.00,0,weatherlink.com 1.10,2013-02-21 08:35:00,
2013-02-21 00:51:00,40.9,35.0,30.12,NW,325,2.0,4.0,80,0.00,,,0.00,0,weatherlink.com 1.10,2013-02-21 08:51:00,
2013-02-21 01:05:00,41.5,36.0,30.12,North,5,1.0,4.0,80,0.00,,,0.00,0,weatherlink.com 1.10,2013-02-21 09:05:00,
2013-02-21 01:20:00,41.9,36.0,30.12,NNE,13,1.0,3.0,79,0.00,,,0.00,0,weatherlink.com 1.10,2013-02-21 09:20:00,
2013-02-21 01:35:00,41.7,36.0,30.12,NNE,13,1.0,3.0,79,0.00,,,0.00,0,weatherlink.com 1.10,2013-02-21 09:35:00,
2013-02-21 01:50:00,39.8,34.0,30.12,NE,34,2.0,3.0,79,0.00,,,0.00,0,weatherlink.com 1.10,2013-02-21 09:50:00,
2013-02-21 02:05:00,38.8,33.0,30.12,NE,34,3.0,4.0,80,0.00,,,0.00,0,weatherlink.com 1.10,2013-02-21 10:05:00,
2013-02-21 02:21:00,39.0,34.0,30.12,NNE,22,2.0,5.0,81,0.00,,,0.00,0,weatherlink.com 1.10,2013-02-21 10:21:00,
2013-02-21 02:35:00,42.0,37.0,30.12,NNW,331,3.0,6.0,81,0.00,,,0.00,0,weatherlink.com 1.10,2013-02-21 10:35:00,
2013-02-21 02:51:00,43.7,38.0,30.12,NNW,340,4.0,8.0,79,0.00,,,0.00,0,weatherlink.com 1.10,2013-02-21 10:51:00,
2013-02-21 03:05:00,42.5,36.0,30.12,North,360,3.0,5.0,79,0.00,,,0.00,0,weatherlink.com 1.10,2013-02-21 11:05:00,
2013-02-21 03:20:00,43.1,37.0,30.12,NNE,26,3.0,9.0,79,0.00,,,0.00,0,weatherlink.com 1.10,2013-02-21 11:20:00,
2013-02-21 03:36:00,44.2,38.0,30.11,NW,315,4.0,10.0,78,0.00,,,0.00,0,weatherlink.com 1.10,2013-02-21 11:36:00,
2013-02-21 03:51:00,44.2,37.0,30.11,NNW,329,2.0,6.0,77,0.00,,,0.00,0,weatherlink.com 1.10,2013-02-21 11:51:00,
2013-02-21 04:06:00,43.4,37.0,30.12,North,360,1.0,3.0,78,0.00,,,0.00,0,weatherlink.com 1.10,2013-02-21 12:06:00,
2013-02-21 04:21:00,43.3,37.0,30.12,NNW,327,0.0,5.0,79,0.00,,,0.00,0,weatherlink.com 1.10,2013-02-21 12:21:00,
2013-02-21 04:36:00,43.3,37.0,30.12,NNE,12,2.0,5.0,79,0.00,,,0.00,0,weatherlink.com 1.10,2013-02-21 12:36:00,
2013-02-21 04:51:00,42.9,37.0,30.11,North,5,5.0,7.0,79,0.00,,,0.00,0,weatherlink.com 1.10,2013-02-21 12:51:00,
2013-02-21 05:06:00,43.6,38.0,30.11,North,355,2.0,8.0,79,0.00,,,0.00,0,weatherlink.com 1.10,2013-02-21 13:06:00,
2013-02-21 05:21:00,43.6,38.0,30.12,NNW,337,2.0,5.0,79,0.00,,,0.00,0,weatherlink.com 1.10,2013-02-21 13:21:00,
2013-02-21 05:36:00,43.8,37.0,30.12,NW,308,4.0,7.0,78,0.00,,,0.00,0,weatherlink.com 1.10,2013-02-21 13:36:00,
2013-02-21 05:51:00,43.8,37.0,30.12,NW,318,5.0,6.0,78,0.00,,,0.00,0,weatherlink.com 1.10,2013-02-21 13:51:00,
2013-02-21 06:06:00,44.2,38.0,30.13,NNW,327,3.0,9.0,78,0.00,,,0.00,0,weatherlink.com 1.10,2013-02-21 14:06:00,
2013-02-21 06:21:00,43.5,37.0,30.13,North,360,0.0,5.0,78,0.00,,,0.00,0,weatherlink.com 1.10,2013-02-21 14:21:00,
2013-02-21 06:36:00,42.9,36.0,30.13,NNW,334,2.0,8.0,78,0.00,,,0.00,0,weatherlink.com 1.10,2013-02-21 14:36:00,
2013-02-21 06:51:00,43.0,37.0,30.13,North,355,3.0,7.0,78,0.00,,,0.00,0,weatherlink.com 1.10,2013-02-21 14:51:00,
2013-02-21 07:06:00,42.4,36.0,30.14,North,360,0.0,4.0,78,0.00,,,0.00,11,weatherlink.com 1.10,2013-02-21 15:06:00,
2013-02-21 07:21:00,40.8,34.0,30.15,North,11,0.0,3.0,78,0.00,,,0.00,18,weatherlink.com 1.10,2013-02-21 15:21:00,
2013-02-21 07:36:00,39.5,34.0,30.15,NE,36,4.0,5.0,79,0.00,,,0.00,30,weatherlink.com 1.10,2013-02-21 15:36:00,
2013-02-21 07:51:00,39.5,34.0,30.16,NNE,26,0.0,5.0,80,0.00,,,0.00,116,weatherlink.com 1.10,2013-02-21 15:51:00,
2013-02-21 08:06:00,40.4,35.0,30.17,NNE,32,1.0,4.0,80,0.00,,,0.00,167,weatherlink.com 1.10,2013-02-21 16:06:00,
2013-02-21 08:21:00,41.9,36.0,30.17,ESE,112,0.0,2.0,80,0.00,,,0.00,230,weatherlink.com 1.10,2013-02-21 16:21:00,
2013-02-21 08:36:00,43.3,38.0,30.17,ESE,112,0.0,1.0,80,0.00,,,0.00,288,weatherlink.com 1.10,2013-02-21 16:36:00,
2013-02-21 08:51:00,45.1,39.0,30.18,NNW,342,0.0,3.0,78,0.00,,,0.00,343,weatherlink.com 1.10,2013-02-21 16:51:00,
2013-02-21 09:06:00,47.2,39.0,30.18,West,263,6.0,7.0,74,0.00,,,0.00,385,weatherlink.com 1.10,2013-02-21 17:06:00,
2013-02-21 09:21:00,48.5,40.0,30.18,SSW,211,3.0,6.0,72,0.00,,,0.00,432,weatherlink.com 1.10,2013-02-21 17:21:00,
2013-02-21 09:36:00,48.9,40.0,30.18,West,281,3.0,8.0,72,0.00,,,0.00,473,weatherlink.com 1.10,2013-02-21 17:36:00,
2013-02-21 09:51:00,49.6,40.0,30.19,West,280,6.0,8.0,70,0.00,,,0.00,513,weatherlink.com 1.10,2013-02-21 17:51:00,
2013-02-21 10:07:00,50.3,41.0,30.19,WSW,243,2.0,11.0,71,0.00,,,0.00,548,weatherlink.com 1.10,2013-02-21 18:07:00,
2013-02-21 10:22:00,50.8,41.0,30.19,West,276,6.0,10.0,69,0.00,,,0.00,578,weatherlink.com 1.10,2013-02-21 18:22:00,
2013-02-21 10:37:00,51.6,41.0,30.19,West,277,3.0,9.0,68,0.00,,,0.00,608,weatherlink.com 1.10,2013-02-21 18:37:00,
2013-02-21 10:52:00,52.4,41.0,30.19,SW,232,7.0,10.0,66,0.00,,,0.00,635,weatherlink.com 1.10,2013-02-21 18:52:00,
2013-02-21 11:07:00,51.8,41.0,30.19,West,265,5.0,13.0,67,0.00,,,0.00,663,weatherlink.com 1.10,2013-02-21 19:07:00,
2013-02-21 11:22:00,52.3,43.0,30.20,West,277,2.0,13.0,70,0.00,,,0.00,675,weatherlink.com 1.10,2013-02-21 19:22:00,
2013-02-21 11:37:00,52.0,42.0,30.19,West,272,10.0,15.0,69,0.00,,,0.00,689,weatherlink.com 1.10,2013-02-21 19:37:00,
2013-02-21 11:52:00,52.6,43.0,30.18,West,265,1.0,16.0,70,0.00,,,0.00,700,weatherlink.com 1.10,2013-02-21 19:52:00,
2013-02-21 12:22:00,52.0,42.0,30.17,WSW,250,8.0,16.0,69,0.00,,,0.00,707,weatherlink.com 1.10,2013-02-21 20:22:00,
2013-02-21 12:37:00,52.1,43.0,30.17,West,278,7.0,18.0,70,0.00,,,0.00,708,weatherlink.com 1.10,2013-02-21 20:37:00,
2013-02-21 12:52:00,52.1,43.0,30.17,West,267,9.0,15.0,70,0.00,,,0.00,698,weatherlink.com 1.10,2013-02-21 20:52:00,
2013-02-21 13:07:00,52.0,42.0,30.16,WNW,284,14.0,17.0,70,0.00,,,0.00,687,weatherlink.com 1.10,2013-02-21 21:07:00,
2013-02-21 13:22:00,52.4,43.0,30.16,WNW,293,12.0,17.0,70,0.00,,,0.00,679,weatherlink.com 1.10,2013-02-21 21:22:00,
2013-02-21 13:37:00,52.6,43.0,30.15,West,261,10.0,19.0,69,0.00,,,0.00,628,weatherlink.com 1.10,2013-02-21 21:37:00,
2013-02-21 13:52:00,52.8,43.0,30.15,WNW,292,7.0,21.0,69,0.00,,,0.00,645,weatherlink.com 1.10,2013-02-21 21:52:00,
2013-02-21 14:07:00,53.7,43.0,30.15,WSW,254,10.0,16.0,68,0.00,,,0.00,626,weatherlink.com 1.10,2013-02-21 22:07:00,
2013-02-21 14:22:00,53.1,43.0,30.15,WNW,282,8.0,17.0,68,0.00,,,0.00,591,weatherlink.com 1.10,2013-02-21 22:22:00,
2013-02-21 14:37:00,52.5,43.0,30.14,WNW,286,4.0,19.0,69,0.00,,,0.00,541,weatherlink.com 1.10,2013-02-21 22:37:00,
2013-02-21 14:52:00,52.8,43.0,30.14,WSW,244,5.0,16.0,69,0.00,,,0.00,503,weatherlink.com 1.10,2013-02-21 22:52:00,
2013-02-21 15:07:00,53.0,43.0,30.13,West,276,9.0,19.0,69,0.00,,,0.00,482,weatherlink.com 1.10,2013-02-21 23:07:00,
2013-02-21 15:22:00,52.5,43.0,30.13,WNW,300,12.0,20.0,69,0.00,,,0.00,446,weatherlink.com 1.10,2013-02-21 23:22:00,
2013-02-21 15:37:00,53.5,43.0,30.13,West,271,4.0,17.0,67,0.00,,,0.00,350,weatherlink.com 1.10,2013-02-21 23:37:00,
2013-02-21 15:52:00,53.2,44.0,30.13,West,264,7.0,16.0,70,0.00,,,0.00,301,weatherlink.com 1.10,2013-02-21 23:52:00,
2013-02-21 16:08:00,52.1,43.0,30.13,WNW,286,5.0,18.0,71,0.00,,,0.00,274,weatherlink.com 1.10,2013-02-22 00:08:00,
2013-02-21 16:22:00,52.9,43.0,30.14,WSW,243,4.0,13.0,70,0.00,,,0.00,160,weatherlink.com 1.10,2013-02-22 00:22:00,
2013-02-21 16:37:00,53.1,43.0,30.14,WNW,296,9.0,13.0,68,0.00,,,0.00,211,weatherlink.com 1.10,2013-02-22 00:37:00,
2013-02-21 16:52:00,54.2,43.0,30.14,WNW,289,4.0,14.0,65,0.00,,,0.00,134,weatherlink.com 1.10,2013-02-22 00:52:00,
2013-02-21 17:07:00,53.9,41.0,30.14,West,273,6.0,14.0,63,0.00,,,0.00,93,weatherlink.com 1.10,2013-02-22 01:07:00,
2013-02-21 17:22:00,53.6,42.0,30.14,WNW,294,6.0,12.0,64,0.00,,,0.00,46,weatherlink.com 1.10,2013-02-22 01:22:00,
2013-02-21 17:37:00,53.1,42.0,30.14,WNW,289,5.0,8.0,65,0.00,,,0.00,21,weatherlink.com 1.10,2013-02-22 01:37:00,
2013-02-21 17:52:00,52.1,41.0,30.14,North,360,2.0,4.0,66,0.00,,,0.00,12,weatherlink.com 1.10,2013-02-22 01:52:00,
2013-02-21 18:07:00,51.3,40.0,30.15,NNW,346,3.0,9.0,66,0.00,,,0.00,0,weatherlink.com 1.10,2013-02-22 02:07:00,
2013-02-21 18:22:00,50.7,39.0,30.16,WNW,300,6.0,8.0,65,0.00,,,0.00,0,weatherlink.com 1.10,2013-02-22 02:22:00,
2013-02-21 18:37:00,49.9,39.0,30.16,North,351,0.0,6.0,67,0.00,,,0.00,0,weatherlink.com 1.10,2013-02-22 02:37:00,
2013-02-21 18:52:00,49.0,39.0,30.17,North,360,0.0,3.0,69,0.00,,,0.00,0,weatherlink.com 1.10,2013-02-22 02:52:00,
2013-02-21 19:07:00,49.0,39.0,30.17,NNW,336,2.0,4.0,68,0.00,,,0.00,0,weatherlink.com 1.10,2013-02-22 03:07:00,
2013-02-21 19:22:00,49.0,39.0,30.17,NE,34,5.0,8.0,69,0.00,,,0.00,0,weatherlink.com 1.10,2013-02-22 03:22:00,
2013-02-21 19:37:00,50.1,38.0,30.17,NNW,331,4.0,10.0,64,0.00,,,0.00,0,weatherlink.com 1.10,2013-02-22 03:37:00,
2013-02-21 19:53:00,50.1,38.0,30.17,North,355,7.0,10.0,63,0.00,,,0.00,0,weatherlink.com 1.10,2013-02-22 03:53:00,
2013-02-21 20:07:00,49.8,38.0,30.16,NW,321,4.0,10.0,64,0.00,,,0.00,0,weatherlink.com 1.10,2013-02-22 04:07:00,
2013-02-21 20:22:00,48.7,38.0,30.17,NW,316,1.0,5.0,66,0.00,,,0.00,0,weatherlink.com 1.10,2013-02-22 04:22:00,
2013-02-21 20:37:00,47.6,38.0,30.18,North,355,3.0,6.0,69,0.00,,,0.00,0,weatherlink.com 1.10,2013-02-22 04:37:00,
2013-02-21 20:53:00,45.2,37.0,30.18,NNE,26,2.0,4.0,72,0.00,,,0.00,0,weatherlink.com 1.10,2013-02-22 04:53:00,
2013-02-21 21:07:00,44.3,37.0,30.18,NNE,28,3.0,5.0,74,0.00,,,0.00,0,weatherlink.com 1.10,2013-02-22 05:07:00,
2013-02-21 21:23:00,44.1,37.0,30.18,ENE,70,3.0,5.0,75,0.00,,,0.00,0,weatherlink.com 1.10,2013-02-22 05:23:00,
2013-02-21 21:37:00,43.9,37.0,30.18,ENE,60,3.0,3.0,76,0.00,,,0.00,0,weatherlink.com 1.10,2013-02-22 05:37:00,
2013-02-21 21:52:00,44.0,37.0,30.19,ENE,60,0.0,3.0,76,0.00,,,0.00,0,weatherlink.com 1.10,2013-02-22 05:52:00,
2013-02-21 22:07:00,44.7,38.0,30.19,NNE,19,0.0,2.0,76,0.00,,,0.00,0,weatherlink.com 1.10,2013-02-22 06:07:00,
2013-02-21 22:22:00,44.9,38.0,30.19,NNE,19,0.0,1.0,76,0.00,,,0.00,0,weatherlink.com 1.10,2013-02-22 06:22:00,
2013-02-21 22:37:00,45.1,38.0,30.20,WNW,289,0.0,3.0,76,0.00,,,0.00,0,weatherlink.com 1.10,2013-02-22 06:37:00,
2013-02-21 22:53:00,44.1,37.0,30.20,WNW,289,1.0,1.0,76,0.00,,,0.00,0,weatherlink.com 1.10,2013-02-22 06:53:00,
2013-02-21 23:08:00,43.6,37.0,30.20,WNW,290,1.0,2.0,77,0.00,,,0.00,0,weatherlink.com 1.10,2013-02-22 07:08:00,
2013-02-21 23:23:00,43.2,36.0,30.20,WNW,294,0.0,2.0,77,0.00,,,0.00,0,weatherlink.com 1.10,2013-02-22 07:23:00,
2013-02-21 23:38:00,42.8,36.0,30.20,WNW,296,0.0,3.0,77,0.00,,,0.00,0,weatherlink.com 1.10,2013-02-22 07:38:00,
2013-02-21 23:53:00,42.2,36.0,30.20,NNE,32,1.0,2.0,78,0.00,,,0.00,0,weatherlink.com 1.10,2013-02-22 07:53:00,